TimeEST,TemperatureF,Dew PointF,Humidity,Sea Level PressureIn,VisibilityMPH,Wind Direction,Wind SpeedMPH,Gust SpeedMPH,PrecipitationIn,Events,Conditions,WindDirDegrees,DateUTC
12:15 AM,27.3,26.1,95,30.36,10.0,Calm,Calm,-,N/A,,Clear,0,2012-12-14 05:15:00
12:35 AM,26.8,25.7,96,30.35,10.0,Calm,Calm,-,N/A,,Clear,0,2012-12-14 05:35:00
12:55 AM,26.6,25.7,96,30.35,10.0,Calm,Calm,-,N/A,,Clear,0,2012-12-14 05:55:00
1:15 AM,26.8,25.7,96,30.34,10.0,Calm,Calm,-,N/A,,Clear,0,2012-12-14 06:15:00
1:35 AM,26.1,25.0,96,30.34,10.0,Calm,Calm,-,N/A,,Clear,0,2012-12-14 06:35:00
1:55 AM,25.7,24.8,96,30.34,10.0,Calm,Calm,-,N/A,,Clear,0,2012-12-14 06:55:00
2:15 AM,26.6,25.7,96,30.34,10.0,Calm,Calm,-,N/A,,Clear,0,2012-12-14 07:15:00
2:35 AM,26.1,24.8,95,30.34,10.0,Calm,Calm,-,N/A,,Clear,0,2012-12-14 07:35:00
2:55 AM,25.7,24.6,96,30.34,10.0,Calm,Calm,-,N/A,,Clear,0,2012-12-14 07:55:00
3:15 AM,25.7,24.8,96,30.35,10.0,Calm,Calm,-,N/A,,Clear,0,2012-12-14 08:15:00
3:35 AM,25.5,24.6,96,30.34,10.0,Calm,Calm,-,N/A,,Clear,0,2012-12-14 08:35:00
3:55 AM,24.8,23.9,96,30.34,10.0,Calm,Calm,-,N/A,,Clear,0,2012-12-14 08:55:00
4:15 AM,24.8,23.7,96,30.34,10.0,Calm,Calm,-,N/A,,Clear,0,2012-12-14 09:15:00
4:35 AM,24.8,23.9,96,30.33,10.0,Calm,Calm,-,N/A,,Clear,0,2012-12-14 09:35:00
4:55 AM,23.9,23.0,96,30.33,10.0,Calm,Calm,-,N/A,,Clear,0,2012-12-14 09:55:00
5:15 AM,24.1,22.8,95,30.34,10.0,Calm,Calm,-,N/A,,Clear,0,2012-12-14 10:15:00
5:35 AM,24.3,23.2,96,30.35,10.0,Calm,Calm,-,N/A,,Clear,0,2012-12-14 10:35:00
5:55 AM,23.4,22.1,95,30.35,10.0,Calm,Calm,-,N/A,,Clear,0,2012-12-14 10:55:00
6:15 AM,23.2,21.7,94,30.34,10.0,Calm,Calm,-,N/A,,Clear,0,2012-12-14 11:15:00
6:35 AM,23.4,22.3,96,30.35,10.0,Calm,Calm,-,N/A,,Clear,0,2012-12-14 11:35:00
6:55 AM,23.2,21.9,95,30.35,10.0,Calm,Calm,-,N/A,,Clear,0,2012-12-14 11:55:00
7:15 AM,22.8,21.6,95,30.34,10.0,Calm,Calm,-,N/A,,Clear,0,2012-12-14 12:15:00
7:35 AM,23.7,22.1,94,30.35,10.0,Calm,Calm,-,N/A,,Clear,0,2012-12-14 12:35:00
7:55 AM,23.7,22.3,94,30.35,10.0,Calm,Calm,-,N/A,,Clear,0,2012-12-14 12:55:00
8:15 AM,26.2,24.6,94,30.35,10.0,Calm,Calm,-,N/A,,Clear,0,2012-12-14 13:15:00
8:35 AM,29.8,28.2,94,30.36,10.0,Calm,Calm,-,N/A,,Clear,0,2012-12-14 13:35:00
8:55 AM,32.0,29.5,90,30.35,10.0,Calm,Calm,-,N/A,,Clear,0,2012-12-14 13:55:00
9:15 AM,35.6,31.3,84,30.35,10.0,Calm,Calm,-,N/A,,Clear,0,2012-12-14 14:15:00
9:35 AM,39.6,31.6,73,30.35,10.0,Calm,Calm,-,N/A,,Clear,0,2012-12-14 14:35:00
9:55 AM,42.3,33.3,70,30.35,10.0,South,4.6,-,N/A,,Clear,190,2012-12-14 14:55:00
10:15 AM,44.2,34.2,68,30.34,10.0,South,4.6,-,N/A,,Clear,170,2012-12-14 15:15:00
10:35 AM,45.1,33.4,64,30.34,10.0,SSW,5.8,-,N/A,,Clear,210,2012-12-14 15:35:00
10:55 AM,46.2,32.0,58,30.34,10.0,SW,5.8,-,N/A,,Clear,230,2012-12-14 15:55:00
11:15 AM,47.3,32.0,55,30.34,10.0,SW,4.6,-,N/A,,Clear,230,2012-12-14 16:15:00
11:35 AM,48.9,31.5,51,30.32,10.0,WSW,6.9,-,N/A,,Clear,250,2012-12-14 16:35:00
11:55 AM,50.2,29.8,46,30.31,10.0,SW,6.9,-,N/A,,Clear,220,2012-12-14 16:55:00
12:15 PM,50.7,29.3,44,30.31,10.0,SSW,5.8,-,N/A,,Clear,210,2012-12-14 17:15:00
12:35 PM,51.8,28.9,41,30.29,10.0,WSW,6.9,-,N/A,,Clear,250,2012-12-14 17:35:00
12:55 PM,52.3,27.7,39,30.29,10.0,SW,6.9,-,N/A,,Clear,230,2012-12-14 17:55:00
1:15 PM,52.0,27.1,38,30.28,10.0,WSW,5.8,-,N/A,,Clear,240,2012-12-14 18:15:00
3:35 PM,54.0,28.9,38,30.24,10.0,Calm,Calm,-,N/A,,Clear,0,2012-12-14 20:35:00
3:55 PM,53.2,29.5,40,30.24,10.0,South,3.5,-,N/A,,Clear,170,2012-12-14 20:55:00
4:15 PM,52.3,29.1,41,30.23,10.0,SSE,4.6,-,N/A,,Clear,160,2012-12-14 21:15:00
4:35 PM,50.9,28.8,43,30.23,10.0,Calm,Calm,-,N/A,,Clear,0,2012-12-14 21:35:00
4:55 PM,47.1,29.8,51,30.23,10.0,Calm,Calm,-,N/A,,Clear,0,2012-12-14 21:55:00
5:15 PM,43.9,31.1,61,30.24,10.0,Calm,Calm,-,N/A,,Clear,0,2012-12-14 22:15:00
5:35 PM,41.2,30.7,66,30.24,10.0,Calm,Calm,-,N/A,,Clear,0,2012-12-14 22:35:00
5:55 PM,39.6,30.6,70,30.25,10.0,Calm,Calm,-,N/A,,Clear,0,2012-12-14 22:55:00
6:15 PM,37.4,30.6,76,30.25,10.0,Calm,Calm,-,N/A,,Clear,0,2012-12-14 23:15:00
6:35 PM,35.8,30.9,82,30.25,10.0,Calm,Calm,-,N/A,,Clear,0,2012-12-14 23:35:00
6:55 PM,35.1,30.2,82,30.25,10.0,Calm,Calm,-,N/A,,Clear,0,2012-12-14 23:55:00
7:15 PM,34.2,30.0,85,30.26,10.0,Calm,Calm,-,N/A,,Clear,0,2012-12-15 00:15:00
7:35 PM,33.4,30.4,89,30.25,10.0,Calm,Calm,-,N/A,,Clear,0,2012-12-15 00:35:00
7:55 PM,32.2,30.6,94,30.25,10.0,Calm,Calm,-,N/A,,Clear,0,2012-12-15 00:55:00
8:15 PM,32.9,31.1,93,30.25,10.0,Calm,Calm,-,N/A,,Clear,0,2012-12-15 01:15:00
8:35 PM,32.0,29.8,92,30.26,10.0,Calm,Calm,-,N/A,,Clear,0,2012-12-15 01:35:00
8:55 PM,30.2,28.8,94,30.26,10.0,Calm,Calm,-,N/A,,Clear,0,2012-12-15 01:55:00
9:15 PM,29.8,28.4,94,30.26,10.0,Calm,Calm,-,N/A,,Clear,0,2012-12-15 02:15:00
9:35 PM,30.9,29.8,96,30.26,10.0,Calm,Calm,-,N/A,,Clear,0,2012-12-15 02:35:00
9:55 PM,30.4,29.1,95,30.26,10.0,Calm,Calm,-,N/A,,Clear,0,2012-12-15 02:55:00
10:15 PM,29.7,28.4,95,30.27,10.0,Calm,Calm,-,N/A,,Clear,0,2012-12-15 03:15:00
10:35 PM,30.4,29.3,96,30.27,10.0,Calm,Calm,-,N/A,,Clear,0,2012-12-15 03:35:00
10:55 PM,30.2,29.1,96,30.27,10.0,Calm,Calm,-,N/A,,Clear,0,2012-12-15 03:55:00
11:15 PM,29.3,28.0,95,30.26,10.0,Calm,Calm,-,N/A,,Clear,0,2012-12-15 04:15:00
11:35 PM,29.8,28.2,94,30.26,10.0,Calm,Calm,-,N/A,,Clear,0,2012-12-15 04:35:00
11:55 PM,29.5,28.2,95,30.26,10.0,Calm,Calm,-,N/A,,Clear,0,2012-12-15 04:55:00